Visibility
15.0 15.0 15.0 15.0 15.0 8.9 0.4 0.2 0.0 10.0 15.0 0.0 0.1 0.0 0.0 15.0 15.0 15.0 15.0 1.8 15.0 0.2 0.0 0.0 0.4 0.1 14.9 15.0 15.0 0.2 0.6 0.1 0.1 14.3 15.0 15.0 14.4 14.5 15.0 0.1 0.1 0.2 0.2 0.1
15.0 15.0 12.3 13.9 14.8 11.5 2.3 0.0 0.0 13.9 15.0 0.0 0.0 0.1 12.5 15.0 15.0 15.0 8.7 12.9 13.7 15.0 0.0 0.0 0.1 0.4 15.0 15.0 4.2 0.1 0.1 0.1 0.1 0.7 6.6 14.3 15.0 15.0 15.0 13.1 0.6 0.1 0.3 0.2
14.0 15.0 13.3 15.0 15.0 13.2 0.2 0.1 0.1 0.1 0.0 0.0 0.1 0.0 0.0 0.1 15.0 15.0 15.0 15.0 3.8 0.0 0.0 0.1 0.0 7.2 15.0 15.0 15.0 0.1 0.0 0.1 0.3 3.2 0.2 0.1 0.1 0.5 10.3 13.3 0.3 0.4 0.1 0.1
15.0 15.0 15.0 15.0 15.0 15.0 0.8 0.1 0.1 15.0 0.2 0.6 0.3 0.0 0.0 0.0 0.2 15.0 15.0 0.0 0.2 0.6 0.1 0.3 1.1 15.0 3.8 4.4 15.0 0.3 0.0 0.1 9.1 15.0 0.1 0.1 0.1 0.1 0.1 0.1 0.1 0.1 0.1 0.1
15.0 15.0 15.0 15.0 15.0 13.9 0.1 0.0 0.3 0.1 0.1 0.2 0.3 0.0 0.0 0.0 0.1 3.1 0.0 0.0 15.0 0.1 0.0 10.2 0.1 1.4 0.1 0.1 0.7 0.2 0.1 0.1 0.2 0.1 0.1 0.1 0.1 0.1 0.1 0.1 0.1 0.1 0.1 0.1
15.0 15.0 15.0 15.0 15.0 4.7 0.1 0.1 10.8 0.7 0.1 0.0 0.0 0.1 1.4 0.2 8.2 0.1 4.1 3.8 0.1 0.0 0.4 0.1 0.1 0.1 0.1 0.1 0.1 0.1 0.1 0.1 0.1 0.1 0.2 0.1 0.1 0.1 0.1 0.1 0.1 0.1 0.1 0.1
15.0 15.0 15.0 15.0 15.0 11.4 0.2 0.7 0.1 0.0 0.0 0.0 0.1 0.1 0.1 0.0 0.0 0.0 0.1 0.1 0.1 0.1 0.1 0.1 0.1 0.1 0.1 0.2 0.1 0.2 0.2 0.1 0.1 0.1 0.1 0.1 0.1 1.0 3.0 0.3 0.1 0.1 0.1 0.1
15.0 15.0 15.0 15.0 15.0 15.0 2.6 0.2 0.1 0.1 0.0 0.1 0.1 0.1 0.1 0.1 0.1 0.1 0.1 0.1 0.1 0.1 0.1 0.1 0.1 0.1 0.1 0.2 13.2 1.8 0.3 0.1 0.1 0.1 0.1 0.1 0.4 0.5 0.3 0.2 0.1 0.1 0.1 0.1
15.0 15.0 15.0 15.0 15.0 15.0 15.0 1.8 0.6 0.6 0.0 0.0 0.1 0.1 0.1 0.1 0.1 0.1 0.1 0.2 0.1 0.1 0.1 0.1 0.1 0.1 0.1 0.1 0.3 15.0 12.1 0.8 0.1 0.1 0.1 0.1 0.2 0.3 0.2 0.3 0.1 0.1 0.1 0.2
15.0 15.0 15.0 15.0 15.0 15.0 15.0 4.6 0.6 0.7 0.1 0.1 0.1 0.1 0.1 0.1 0.1 0.1 0.1 0.1 0.5 0.2 0.1 0.1 0.1 0.1 0.1 0.1 0.1 0.1 0.2 0.2 0.1 0.1 0.1 0.1 0.1 1.2 0.2 0.1 0.1 0.2 0.6 1.2
15.0 15.0 15.0 15.0 15.0 15.0 15.0 0.1 0.1 0.7 0.1 0.1 0.1 0.1 0.1 0.1 0.1 0.1 0.2 0.1 1.3 0.2 0.1 0.1 0.1 0.1 0.1 0.2 0.1 0.1 0.2 0.1 0.1 0.2 0.1 0.1 0.3 7.0 0.6 0.1 7.8 1.3 2.5 14.1
15.0 15.0 15.0 15.0 15.0 15.0 15.0 0.1 8.8 14.8 3.1 0.1 0.4 11.6 9.1 0.5 0.1 0.3 0.3 0.1 0.1 0.1 0.1 0.2 0.8 0.2 0.2 0.1 0.1 5.3 1.5 0.4 0.2 3.8 0.1 0.1 0.2 1.9 0.8 14.2 2.4 5.4 3.4 15.0
15.0 15.0 15.0 15.0 15.0 15.0 15.0 15.0 15.0 15.0 15.0 15.0 15.0 15.0 15.0 15.0 15.0 4.7 0.9 3.3 1.6 0.8 0.2 0.5 0.2 0.2 1.6 0.9 5.7 15.0 2.8 15.0 15.0 12.7 2.9 15.0 15.0 15.0 15.0 15.0 1.4 2.1 15.0 15.0
15.0 15.0 15.0 15.0 15.0 15.0 15.0 15.0 15.0 15.0 15.0 15.0 15.0 15.0 15.0 15.0 15.0 15.0 15.0 15.0 15.0 15.0 15.0 15.0 15.0 11.0 15.0 15.0 15.0 15.0 12.4 15.0 15.0 15.0 15.0 15.0 15.0 15.0 15.0 15.0 15.0 15.0 15.0 15.0
15.0 15.0 15.0 15.0 15.0 15.0 15.0 15.0 15.0 15.0 15.0 15.0 15.0 15.0 15.0 15.0 15.0 15.0 15.0 15.0 15.0 15.0 15.0 15.0 5.2 12.2 15.0 11.4 15.0 1.1 2.8 1.2 1.4 5.8 15.0 2.7 7.3 15.0 15.0 15.0 15.0 15.0 13.2 3.7
15.0 15.0 15.0 15.0 15.0 15.0 15.0 15.0 15.0 15.0 15.0 15.0 15.0 15.0 15.0 15.0 15.0 15.0 15.0 15.0 14.9 15.0 15.0 4.0 6.4 15.0 15.0 15.0 4.8 15.0 4.4 0.7 0.6 0.4 11.9 1.9 13.5 15.0 15.0 11.2 10.7 15.0 0.9 15.0
15.0 15.0 15.0 15.0 15.0 15.0 15.0 15.0 15.0 15.0 15.0 15.0 15.0 15.0 15.0 15.0 15.0 15.0 15.0 15.0 15.0 15.0 6.8 12.2 15.0 15.0 15.0 15.0 2.6 15.0 15.0 15.0 3.2 15.0 10.6 11.7 15.0 15.0 15.0 9.4 14.6 15.0 15.0 15.0
15.0 15.0 15.0 15.0 15.0 15.0 15.0 15.0 15.0 15.0 15.0 15.0 15.0 15.0 15.0 15.0 15.0 15.0 15.0 15.0 15.0 15.0 6.8 15.0 15.0 15.0 15.0 14.4 15.0 15.0 15.0 15.0 9.0 15.0 15.0 6.2 15.0 7.6 15.0 15.0 15.0 15.0 15.0 15.0
15.0 15.0 15.0 15.0 15.0 15.0 15.0 15.0 15.0 15.0 15.0 15.0 15.0 4.2 15.0 15.0 15.0 15.0 15.0 15.0 15.0 15.0 15.0 15.0 15.0 15.0 15.0 15.0 15.0 8.4 13.6 4.3 5.7 9.0 14.5 15.0 13.6 11.3 15.0 15.0 14.0 6.3 5.7 14.9
15.0 15.0 15.0 15.0 15.0 15.0 15.0 15.0 15.0 15.0 15.0 15.0 15.0 15.0 15.0 15.0 15.0 15.0 15.0 15.0 15.0 14.6 15.0 15.0 15.0 5.2 15.0 14.9 3.8 4.9 10.7 15.0 14.9 0.5 2.5 14.7 10.2 8.4 15.0 2.9 3.4 10.8 5.5 8.1
15.0 15.0 15.0 15.0 15.0 15.0 15.0 15.0 15.0 15.0 13.1 11.7 12.3 15.0 10.5 15.0 14.3 5.1 12.7 11.4 15.0 13.7 15.0 15.0 9.7 9.0 8.9 1.1 2.8 15.0 15.0 15.0 15.0 13.1 15.0 15.0 15.0 15.0 7.9 3.5 14.6 15.0 6.2 3.6
15.0 15.0 15.0 15.0 15.0 15.0 15.0 15.0 15.0 9.0 2.6 8.4 4.3 4.9 15.0 15.0 15.0 15.0 12.5 13.4 15.0 15.0 15.0 15.0 15.0 15.0 13.0 0.8 14.0 15.0 15.0 15.0 15.0 15.0 15.0 15.0 15.0 15.0 14.0 9.6 8.3 15.0 15.0 13.0
15.0 15.0 15.0 15.0 15.0 13.4 6.2 1.6 15.0 7.1 2.9 3.2 3.2 3.2 15.0 15.0 15.0 13.5 14.2 15.0 15.0 15.0 15.0 15.0 15.0 15.0 10.5 11.4 15.0 15.0 15.0 15.0 15.0 15.0 15.0 15.0 15.0 15.0 13.1 2.0 7.6 15.0 1.9 11.5
15.0 15.0 15.0 15.0 8.9 12.4 4.1 2.4 5.7 15.0 4.0 2.8 1.4 2.4 5.0 15.0 14.6 3.4 15.0 15.0 15.0 15.0 15.0 15.0 15.0 3.6 11.6 15.0 15.0 8.1 15.0 15.0 15.0 15.0 14.3 14.4 14.3 6.8 15.0 15.0 15.0 2.8 1.1 8.2
13.7 15.0 0.2 15.0 15.0 15.0 13.1 5.9 4.9 12.0 0.8 1.8 10.1 14.7 1.7 13.1 15.0 15.0 15.0 15.0 15.0 15.0 15.0 15.0 1.4 0.5 9.0 15.0 15.0 15.0 15.0 15.0 11.2 14.5 2.4 13.9 5.1 3.0 8.0 15.0 15.0 2.0 1.6 14.6
15.0 15.0 15.0 15.0 10.0 15.0 7.1 3.2 1.9 1.9 3.5 2.4 1.8 3.2 15.0 15.0 6.1 15.0 15.0 2.7 1.5 2.4 0.3 0.3 0.2 1.6 8.1 15.0 15.0 15.0 15.0 15.0 11.1 7.0 5.9 5.1 3.0 5.0 5.1 7.6 9.8 13.6 15.0 6.6
15.0 15.0 14.9 15.0 5.4 4.7 11.5 15.0 15.0 14.5 1.5 2.8 2.6 15.0 14.1 10.4 15.0 3.8 0.3 0.1 0.1 0.1 0.3 5.8 0.6 0.1 0.2 0.7 15.0 15.0 15.0 15.0 15.0 4.3 5.2 3.5 14.9 14.6 3.7 2.6 14.6 15.0 15.0 15.0